Regional Weather Roundup
Issued by NWS

Home | Current Version | Previous Version | Text Only | Print | Product List | Glossary Off
Versions: 1 2 3 4 5 6 7 8 9 10 11 12 13 14 15 16 17 18 19 20 21 22 23 24 25 26 27 28 29 30 31 32 33 34 35 36 37 38 39 40 41 42 43 44 45 46 47 48 49 50

000
ASUS43 KLOT 272158
RWRIL

ILLINOIS REGIONAL WEATHER ROUNDUP
NATIONAL WEATHER SERVICE CHICAGO/ROMEOVILLE IL
400 PM CST THU NOV 27 2014

NOTE: "FAIR" INDICATES FEW OR NO CLOUDS BELOW 12,000 FEET WITH NO
SIGNIFICANT WEATHER AND/OR OBSTRUCTIONS TO VISIBILITY.

* THESE STATIONS ARE NOT UNDER NWS QUALITY CONTROL. THEY ALSO MAY NOT
  REPORT WEATHER SUCH AS PRECIPITATION OR FOG.

ILZ001-002-007-009-015-016-024-272300-
NORTHWEST ILLINOIS

CITY           SKY/WX    TMP DP  RH WIND       PRES   REMARKS
MOLINE         CLEAR     18   1  47 W9        30.45R WCI   7
$$

ILZ003-004-008-010-011-017-018-272300-
NORTH CENTRAL ILLINOIS

CITY           SKY/WX    TMP DP  RH WIND       PRES   REMARKS
ROCKFORD       NOT AVBL
$$

ILZ005-006-012>014-019>023-272300-
NORTHEAST ILLINOIS

CITY           SKY/WX    TMP DP  RH WIND       PRES   REMARKS
CHICAGO-OHARE  CLOUDY    23  14  68 NW8       30.37R WCI  14
CHICAGO-MIDWAY NOT AVBL
AURORA         LGT SNOW  23  15  71 W16       30.39R WCI  10
WAUKEGAN       NOT AVBL
DUPAGE AIRPORT CLOUDY    23  15  71 NW10      30.37R WCI  12
WHEELING       CLOUDY    22  12  65 NW13      30.39R WCI  10
NORTHERLY ISL    N/A     25  14  63 W9          N/A  WCI  16
$$

LMZ740>746-272300-
SOUTHERN LAKE MICHIGAN

STATION/POSITION SKY/WX   TEMP    WIND        PRES    VSBY  WAVE
                          AIR SEA DIR/SP/G                  HT/PER
                          (F)     (DEG/KT/KT) (MB)    (MI)  (FT/S)
SOUTHERN BUOY              26 42  330/ 17/ 21 1027.3R         6/ 7
WAUKEGAN HARBOR            22     320/  6/ 11   N/A
HARRISON CRIB              23     310/ 13/ 18   N/A
BURNHAM HARBOR             25     290/  7/ 14   N/A
CALUMET HARBOR             24     280/ 12/ 17 1027.2R
MICHIGAN CITY              27     270/ 20/ 24   N/A
$$

ILZ025>027-034>036-040-047-049-050-058-095>099-272300-
WEST-CENTRAL ILLINOIS

CITY           SKY/WX    TMP DP  RH WIND       PRES   REMARKS
QUINCY         PTCLDY    23  13  65 NW9       30.47R WCI  13
$$

ILZ028>032-037-038-041>044-048-051>054-059>061-272300-
CENTRAL ILLINOIS

CITY           SKY/WX    TMP DP  RH WIND       PRES   REMARKS
PEORIA         NOT AVBL
SPRINGFIELD    PTCLDY    23  14  68 NW13      30.46R WCI  11
TAYLORVILLE    NOT AVBL
$$

ILZ033-039-045-046-055>057-062-063-272300-
EAST-CENTRAL ILLINOIS

CITY           SKY/WX    TMP DP  RH WIND       PRES   REMARKS
MATTOON        CLOUDY    25  19  78 NW20      30.42R WCI  11
$$

ILZ079-100>102-272300-
SOUTHWEST ILLINOIS

CITY           SKY/WX    TMP DP  RH WIND       PRES   REMARKS
CAHOKIA*       CLEAR     34  21  59 NW9       30.46S WCI  27
$$

ILZ064>066-069>071-074>076-080>082-084>086-088>090-092>094-272300-
SOUTH-CENTRAL ILLINOIS

CITY           SKY/WX    TMP DP  RH WIND       PRES   REMARKS
CARBONDALE     MOCLDY    33  25  72 CALM      30.47R
MARION         PTCLDY    34  25  69 NW12      30.47S WCI  25
$$

ILZ067-068-072-073-078-083-087-091-272300-
SOUTHEAST ILLINOIS

CITY           SKY/WX    TMP DP  RH WIND       PRES   REMARKS
$$

ABBREVIATIONS USED IN REMARKS
   TC - TEMPERATURE IN CELSIUS
  WCI - WIND CHILL INDEX
   HX - HEAT INDEX
  VSB - VISIBILITY
$$



USA.gov is the U.S. government's official web portal to all federal, state and local government web resources and services.